Terug naar catalogus

ARABSAT 2B

ActiefCommunicatieGEO
NORAD 24652·PAYLOAD·🇦🇪 UAE🇸🇦 Saudi Arabia

Gelanceerd Nov 13, 1996 vanaf Guiana Space Centre

Loading…

TLE

VersSource: Space-Track

Epoch: Sep 14, 2026, 14:10 UTC

1 24652U 96063A   26257.59075248 -.00000252  00000-0  00000-0 0  9995
2 24652  10.7754  47.9236 0005047 132.5955 187.3489  0.99417168109344

Volg ARABSAT 2B in realtime met AllMySat

Download on the App Store